Location: Derby
(52.9213°N, 1.4761°W)
Time: 17:50:01
(UTC+01:00)

Tiros 1 - Pass Details

Date: 20 May 2025
Orbit: 620 x 651 km, 48.4° (Epoch: 13 June)

Event Time Altitude Azimuth Distance (km) Brightness Sun altitude
Rises 23:38:42 0° 275° (W) 2,920 10.9 -14.7°
Reaches altitude 10° 23:41:26 10° 260° (W) 2,015 9.8 -14.8°
Maximum altitude 23:44:56 21° 211° (SSW) 1,411 8.5 -15.0°
Enters shadow 23:45:51 20° 195° (SSW) 1,460 8.5 -15.0°
Drops below altitude 10° 23:48:28 10° 162° (SSE) 2,024 - -15.1°
Sets 23:51:14 0° 147° (SSE) 2,936 - -15.3°
